sat.trackr.live / text

‹ back to catalog

TEVEL2-9

NORAD 63237 · 2025-052AD

PAYLOAD ACTIVE UNKNOWN

§ Identity

Operator
Country
ISRA
Launch date
2025-03-15
Launch site
AFWTR
Launch vehicle
Mass (kg)
RCS (m²)

Purposes: comms

External: N2YO · Heavens-Above · Gunter

§ Orbital elements

Epoch: 2026-09-19T23:35:38.389344Z

Period
93.84 min
Inclination
97.3790°
Eccentricity
0.0006777
Mean motion
15.34562116 rev/d
Perigee alt
457.6 km
Apogee alt
466.9 km
Semi-major
6,840.4 km
B*
3.6515e-4
RAAN
158.2348°
Arg perigee
145.7016°
Mean anomaly
214.4666°
Rev number
8,455

§ Raw data

TEVEL2-91 63237U 25052AD  26262.98308321  .00012161  00000+0  36515-3 0  99902 63237  97.3790 158.2348 0006777 145.7016 214.4666 15.34562116 84555

JSON: /api/v1/satellites/63237 · /tle

For live sub-satellite position, see the globe view (requires WebGL).

§ Visibility from observer

Set your observer location to see the next 7 days of passes ≥ 10°. The values pass through the URL so the page stays shareable.

No JS? Fill the form by hand. The geolocation button needs JavaScript.

§ Radio — SatNOGS DB

ModeDescriptionDownlinkUplink
BPSK Mode U - BPSK9k6 G3RUH - Beacon 436.400 MHz
FM Mode V/U - FM Transponder 436.400 MHz 145.970 MHz

2 transmitters · refreshed weekly from db.satnogs.org